CW6467 Weather Reports


time (UTC)temp
F
wind
direction
speed
knots
gust
knots
rain 1hr
in
rain 24hr
in
rain mn
in
humidity
%
barometer
mb
20211209095805 27 80 1.7 3.5 0.00 0.00 0.00 77 979.8
20211209092805 27 155 0.9 3.5 0.00 0.00 0.00 77 981.2
20211209085805 26 148 0.9 2.6 0.00 0.00 0.00 77 980.6
20211209082805 26 152 0.9 3.5 0.00 0.00 0.00 77 981.0
20211209075805 25 152 0.9 2.6 0.00 0.00 0.00 81 981.3
20211209072805 23 67 0.0 2.6 0.00 0.00 0.00 83 981.8
20211209065805 22 43 1.7 2.6 0.00 0.00 0.00 84 982.7
20211209062805 21 43 0.0 0.9 0.00 0.00 0.00 84 983.4
20211209055805 20 43 0.9 1.7 0.00 0.00 0.00 84 983.8
20211209052805 20 43 0.0 1.7 0.00 0.00 0.00 83 984.3
20211209045805 20 43 0.0 0.9 0.00 0.00 0.00 82 984.6
20211209042805 21 43 0.9 2.6 0.00 0.00 0.00 81 984.5
20211209035805 21 43 0.9 2.6 0.00 0.00 0.00 81 984.5
20211209032805 22 63 0.9 1.7 0.00 0.00 0.00 80 984.5
20211209025805 23 63 0.0 1.7 0.00 0.00 0.00 77 984.8
20211209022805 24 63 0.0 0.0 0.00 0.00 0.00 75 984.8
20211209015805 25 63 0.0 0.9 0.00 0.00 0.00 72 984.8
20211209012805 26 63 0.0 2.6 0.00 0.00 0.00 71 984.5
20211209005805 27 59 0.0 3.5 0.00 0.00 0.00 70 983.6
20211208235805 26 51 0.9 2.6 0.00 0.00 0.00 68 984.1
20211208232805 26 40 0.9 1.7 0.00 0.00 0.00 66 984.0
20211208225805 28 26 0.0 0.9 0.00 0.00 0.00 63 984.3
20211208222805 29 263 0.9 2.6 0.00 0.00 0.00 59 984.5
20211208215805 31 183 0.9 2.6 0.00 0.00 0.00 56 984.4
20211208212805 32 296 0.9 5.2 0.00 0.00 0.00 54 984.2
20211208205805 32 234 0.9 4.3 0.00 0.00 0.00 54 983.7
20211208202805 33 233 1.7 5.2 0.00 0.00 0.00 54 983.5
20211208195805 34 186 2.6 4.3 0.00 0.00 0.00 52 982.9
20211208192805 33 119 1.7 4.3 0.00 0.00 0.00 54 982.8
20211208185805 33 171 0.9 5.2 0.00 0.00 0.00 54 983.1
20211208182805 33 97 0.9 4.3 0.00 0.00 0.00 55 983.1
20211208175805 31 96 0.9 6.1 0.00 0.00 0.00 58 982.8
20211208172805 31 34 3.5 6.1 0.00 0.00 0.00 59 982.6
20211208165805 30 282 4.3 6.1 0.00 0.00 0.00 62 982.5
20211208162805 28 15 2.6 6.1 0.00 0.00 0.00 66 982.6
20211208155805 26 9 2.6 6.1 0.00 0.00 0.00 72 982.0
20211208152805 25 265 0.0 5.2 0.00 0.00 0.00 75 981.5
20211208145805 24 210 2.6 3.5 0.00 0.00 0.00 80 981.1
20211208142805 23 219 0.9 3.5 0.00 0.00 0.00 83 980.5
20211208135805 22 209 0.9 2.6 0.00 0.00 0.00 84 980.5
20211208132805 21 194 0.0 0.9 0.00 0.00 0.00 84 980.2
20211208125805 21 194 0.0 0.9 0.00 0.00 0.00 82 979.9
20211208122805 23 194 1.7 1.7 0.00 0.00 0.00 81 979.8
20211208115805 23 198 0.0 3.5 0.00 0.00 0.00 80 980.0
20211208112805 24 190 2.6 4.3 0.00 0.00 0.00 78 979.8
20211208105805 24 175 4.3 4.3 0.00 0.00 0.00 77 979.8
20211208102805 23 179 3.5 5.2 0.00 0.00 0.00 75 979.8